This is the latest recevied weather packets stored in our database for station/object OK2VOP-6. If no packets are shown the sender has not sent any weather packets the latest 10 day(s).
| Time | Temp. | Humidity | Pressure | Rain* | Wind** | Luminosity | Snow |
|---|---|---|---|---|---|---|---|
| 1788449354 | 26.11° C | 12% | - | 0 mm | - | - | - |
| 1788448149 | 26.67° C | 12% | - | 0 mm | - | - | - |
| 1788446944 | 27.78° C | 10% | - | 0 mm | - | - | - |
| 1788445739 | 26.67° C | 12% | - | 0 mm | - | - | - |
| 1788444534 | 26.11° C | 13% | - | 0 mm | - | - | - |
| 1788443329 | 26.11° C | 11% | - | 0 mm | - | - | - |
| 1788442126 | 26.67° C | 10% | - | 0 mm | - | - | - |
| 1788440919 | 27.78° C | 10% | - | 0 mm | - | - | - |
| 1788439715 | 26.11° C | 13% | - | 0 mm | - | - | - |
| 1788438510 | 26.67° C | 12% | - | 0 mm | - | - | - |
| 1788437305 | 27.22° C | 11% | - | 0 mm | - | - | - |
| 1788436100 | 26.11° C | 16% | - | 0 mm | - | - | - |
| 1788434895 | 25.56° C | 20% | - | 0 mm | - | - | - |
| 1788433691 | 25.56° C | 19% | - | 0 mm | - | - | - |
| 1788432486 | 26.11° C | 19% | - | 0.25 mm | - | - | - |
| 1788431281 | 25° C | 21% | - | 0.25 mm | - | - | - |
| 1788430076 | 25° C | 24% | - | 0.25 mm | - | - | - |
| 1788428871 | 24.44° C | 27% | - | 0 mm | - | - | - |
| 1788427667 | 23.33° C | 31% | - | 0 mm | - | - | - |
| 1788426462 | 22.78° C | 37% | - | 0 mm | - | - | - |
| 1788425277 | 22.22° C | 40% | - | 0 mm | - | - | - |
| 1788424052 | 20.56° C | 44% | - | 0 mm | - | - | - |
| 1788422847 | 19.44° C | 49% | - | 0 mm | - | - | - |
| 1788421643 | 18.89° C | 52% | - | 0 mm | - | - | - |
| 1788420438 | 18.33° C | 52% | - | 0 mm | - | - | - |
* Rain latest hour (hover to see other rain measurements)
** Current wind speed in m/s (hover to see current wind gust speed)